Location: Pilipovskiye Korichintsy
(49.1833°N, 27.4667°E)
Time: 07:41:21
(UTC+00:00)

IRS-1C - Visible Passes

Search period start: 31 October 2020 00:00
Search period end: 10 November 2020 00:00
Orbit: 815 x 817 km, 98.8° (Epoch: 31 October)

Date Brightness Start Highest point End Pass type
(mag) Time Alt. Az. Time Alt. Az. Time Alt. Az.
31 Oct 6.0 01:32:24 10° N 01:34:04 20° N 01:34:04 20° N visible
31 Oct 6.2 03:14:39 10° NNW 03:15:20 11° NW 03:15:20 11° NW visible
01 Nov 6.3 01:10:29 10° NNE 01:11:50 18° NNE 01:11:50 18° NNE visible
01 Nov 6.1 02:51:48 10° NNW 02:53:06 14° NNW 02:53:06 14° NNW visible
02 Nov 6.6 00:48:40 10° NNE 00:49:36 15° NNE 00:49:36 15° NNE visible
02 Nov 6.0 02:29:24 10° N 02:30:52 16° NNW 02:30:52 16° NNW visible
03 Nov 6.9 00:26:59 10° NNE 00:27:23 12° NNE 00:27:23 12° NNE visible
03 Nov 6.1 02:07:13 10° N 02:08:39 17° N 02:08:39 17° N visible
04 Nov 6.2 01:45:09 10° N 01:46:25 17° N 01:46:25 17° N visible
05 Nov 6.4 01:23:10 10° N 01:24:11 16° N 01:24:11 16° N visible
05 Nov 6.2 03:04:57 10° NNW 03:05:28 11° NNW 03:05:28 11° NNW visible
06 Nov 6.7 01:01:18 10° NNE 01:01:58 14° NNE 01:01:58 14° NNE visible
06 Nov 6.2 02:42:21 10° NNW 02:43:14 13° NNW 02:43:14 13° NNW visible
07 Nov 6.9 00:39:32 10° NNE 00:39:45 11° NNE 00:39:45 11° NNE visible
07 Nov 6.2 02:20:03 10° N 02:21:01 14° N 02:21:01 14° N visible
08 Nov 6.3 01:57:55 10° N 01:58:47 15° N 01:58:47 15° N visible
09 Nov 6.5 01:35:54 10° N 01:36:34 14° N 01:36:34 14° N visible
